Startpagina
METAR-TAF:

METAR-TAF

Vliegvelden :

Yellowstone Airport

West Yellowstone, Montana, Verenigde Staten

breedte: 44-39N, lengte: 111-06W, hoogte: 2031 m

Actueel weer

Dit bericht is 16 minuten geleden gemaakt, om 06:30 UTC
Weinig wind
Temperatuur -22°C
Vochtigheid 84%
Druk 1024 hPa
Zicht: 16.1 km
Verspreide wolken op 400 ft

METAR: KWYS 180630Z AUTO 00000KT 10SM SCT004 M22/M24 A3025 RMK AO2

Tijdstip: 23:46 (06:46 UTC)


TAF: ontbreekt

Waarnemingen en weersverwachtingen van meer dan 4000 vliegvelden (METAR en TAF).

De beschikbare stations zijn de gele en rode punten op de kaart.

Ga met uw muis naar het station om de naam te zien.

Klik dan om waarnemingen en weersverwachtingen te zien.

kaart wijzigen: klik op de groene knoppen met een zwart kruis om in te zoomen, op de groene knop met een streepje om uit te zoomen of op de groene pijlen voor aangrenzende kaarten.


METAR-TAF: